Flight Track Log - Related Links

Times and Time Zones

All times are in EDT time to prevent confusion due to time zone crossing. See the RPA3228 flight status page for this flight to view local times or setup timezone preferences in your user account.

Time Position Orientation Groundspeed Altitude Reporting Facility
EDT Latitude Longitude Course Direction KTS MPH feet Rate Location/Type
Fri 12:05:00 PM 39.0913 -77.1623 339° North  Level FlightAware Approximate
Fri 12:05:15 PM 38.9667 -77.1500 322° Northwest 244 281 5,000  Level Potomac TRACON
Fri 12:06:00 PM 39.1743 -77.2099 330° Northwest  Level FlightAware Approximate
Fri 12:07:00 PM 39.2550 -77.2453 337° Northwest  Level FlightAware Approximate
Fri 12:07:02 PM 39.0328 -77.2883 302° West 271 312 10,100  Level Washington Center
Fri 12:08:00 PM 39.3337 -77.2890 337° Northwest  Level FlightAware Approximate
Fri 12:08:03 PM 39.1114 -77.3358 335° Northwest 277 319 11,600  Level Washington Center
Fri 12:09:04 PM 39.2111 -77.3594 350° North 330 380 14,300 2,508 Climbing Washington Center
Fri 12:10:05 PM 39.3169 -77.3808 351° North 351 404 16,700 1,685 Climbing Washington Center
Fri 12:12:27 PM 39.5889 -77.4444 350° North 417 480 20,000 975 Climbing New York Center
Fri 12:13:28 PM 39.7117 -77.4856 346° North 444 511 20,000  Level New York Center
Fri 12:14:28 PM 39.8344 -77.5272 345° North 449 517 20,000  Level New York Center
Fri 12:15:26 PM 39.9553 -77.5686 345° North 449 517 20,000  Level New York Center
Fri 12:16:27 PM 40.0758 -77.6103 345° North 449 517 20,000  Level New York Center
Fri 12:17:27 PM 40.2086 -77.6558 345° North 449 517 20,000  Level New York Center
Fri 12:18:29 PM 40.3189 -77.6969 344° North 449 517 20,000  Level New York Center
Fri 12:21:48 PM 40.7242 -77.8406 345° North 433 498 20,000  Level Cleveland Center
Fri 12:22:48 PM 40.8419 -77.8822 345° North 433 498 20,000  Level Cleveland Center
Fri 12:23:48 PM 40.9575 -77.9217 346° North 432 497 20,000  Level Cleveland Center
Fri 12:24:48 PM 41.0628 -77.9586 345° North 419 482 20,000  Level Cleveland Center
Fri 12:25:48 PM 41.1783 -78.0036 344° North 419 482 20,000  Level Cleveland Center
Fri 12:26:48 PM 41.2919 -78.0433 345° North 419 482 20,000  Level Cleveland Center
Fri 12:27:48 PM 41.4075 -78.0858 345° North 419 482 20,000  Level Cleveland Center
Fri 12:28:48 PM 41.5208 -78.1258 345° North 419 482 20,000 -150 Level Cleveland Center
Fri 12:29:48 PM 41.6364 -78.1658 345° North 419 482 19,700 -750 Descending Cleveland Center
Fri 12:30:48 PM 41.7458 -78.2064 345° North 413 475 18,500 -1,200 Descending Cleveland Center
Fri 12:31:48 PM 41.8508 -78.2444 345° North 407 468 17,300 -1,100 Descending Cleveland Center
Fri 12:32:48 PM 41.9536 -78.2825 345° North 388 447 16,300 -1,050 Descending Cleveland Center
Fri 12:33:48 PM 42.0503 -78.3208 344° North 373 429 15,200 -1,050 Descending Cleveland Center
Fri 12:34:48 PM 42.1469 -78.3539 346° North 362 417 14,200 -1,000 Descending Cleveland Center
Fri 12:35:48 PM 42.2433 -78.3869 346° North 362 417 13,200 -1,000 Descending Cleveland Center
Fri 12:36:48 PM 42.3336 -78.4233 343° North 351 404 12,200 -1,000 Descending Cleveland Center
Fri 12:37:48 PM 42.4219 -78.4567 344° North 339 390 11,200 -600 Descending Cleveland Center
Fri 12:38:48 PM 42.5017 -78.4850 345° North 320 368 11,000 -700 Descending Cleveland Center
Fri 12:39:48 PM 42.5731 -78.5108 345° North 287 330 9,800 -1,700 Descending Cleveland Center
Fri 12:40:48 PM 42.6183 -78.6025 304° West 257 296 7,600 -2,050 Descending Cleveland Center
Fri 12:41:48 PM 42.6469 -78.6919 294° West 257 296 5,700 -1,700 Descending Cleveland Center
Fri 12:42:48 PM 42.6775 -78.7758 296° West 257 296 4,200 -1,350 Descending Cleveland Center
Fri 12:43:48 PM 42.7139 -78.8397 308° West 246 283 3,000 -628 Descending Cleveland Center
Fri 12:45:40 PM 42.7833 -78.8833 335° Northwest 138 159 2,400 -321 Descending Buffalo TRACON

Login

Don't have an account? Register now (free) for customized features, flight alerts, and more!